Location: Unspecified
(64.9000°N, 0.0000°E)
Time: 02:32:22
(UTC+00:00)

Transit 2A Rocket - Pass Details

Date: 27 June 2019
Orbit: 588 x 915 km, 66.7° (Epoch: 22 July)

Event Time Altitude Azimuth Distance (km) Brightness Sun altitude
Rises 15:33:07 0° 297° (WNW) 3,439 8.8 36.5°
Reaches altitude 10° 15:35:42 10° 295° (WNW) 2,457 8.3 36.3°
Maximum altitude 15:41:20 72° 213° (SSW) 828 6.2 35.8°
Drops below altitude 10° 15:46:26 10° 130° (SE) 2,231 7.3 35.3°
Sets 15:48:41 0° 128° (SE) 3,099 7.9 35.0°
